• în Republica Moldova
  • Lista ţărilor
  • Pe 7 zile
  • Temperatura apei
  • Hartă satelitară
  • Meteo pe hartă
  • Widget-uri
  • user-avatar
    Intrare

    Meteo pe oră la Townsville

    Astăzi, 19 Octombrie, Vineri

    Timp Temperatura Precipitaţii Vânt Presiune Umiditate
    00:00 +25°C° 1.4 mm 3 m/s 755 mmHg 88%
    01:00 +25°C° 1.4 mm 3 m/s 755 mmHg 88%
    02:00 +25°C° 0 mm 3 m/s 755 mmHg 90%
    03:00 +25°C° 0 mm 2 m/s 754 mmHg 91%
    04:00 +24°C° 0 mm 2 m/s 754 mmHg 93%
    05:00 +25°C° 0 mm 2 m/s 754 mmHg 92%
    06:00 +25°C° 0 mm 2 m/s 755 mmHg 90%
    07:00 +26°C° 0 mm 2 m/s 755 mmHg 88%
    08:00 +27°C° 0 mm 2 m/s 755 mmHg 80%
    09:00 +29°C° 0 mm 3 m/s 755 mmHg 71%
    10:00 +30°C° 0 mm 3 m/s 755 mmHg 63%
    11:00 +31°C° 0 mm 3 m/s 755 mmHg 59%
    12:00 +33°C° 0 mm 4 m/s 754 mmHg 56%
    13:00 +33°C° 0 mm 4 m/s 754 mmHg 53%
    14:00 +33°C° 0 mm 4 m/s 753 mmHg 54%
    15:00 +32°C° 0 mm 4 m/s 753 mmHg 56%
    16:00 +32°C° 0 mm 4 m/s 752 mmHg 58%
    17:00 +29°C° 0 mm 4 m/s 753 mmHg 65%
    18:00 +28°C° 0 mm 4 m/s 753 mmHg 72%
    19:00 +26°C° 0 mm 3 m/s 753 mmHg 79%
    20:00 +26°C° 0 mm 3 m/s 754 mmHg 82%
    21:00 +25°C° 0 mm 3 m/s 754 mmHg 85%
    22:00 +25°C° 0 mm 3 m/s 755 mmHg 88%
    23:00 +25°C° 0 mm 4 m/s 755 mmHg 89%

    Mâine, 20 Octombrie, Sâmbătă

    Timp Temperatura Precipitaţii Vânt Presiune Umiditate
    00:00 +25°C° 0 mm 4 m/s 755 mmHg 90%
    01:00 +25°C° 0 mm 4 m/s 755 mmHg 91%
    02:00 +25°C° 0.1 mm 4 m/s 754 mmHg 90%
    03:00 +25°C° 0.1 mm 4 m/s 754 mmHg 90%
    04:00 +25°C° 0.1 mm 4 m/s 754 mmHg 90%
    05:00 +25°C° 0 mm 3 m/s 754 mmHg 88%
    06:00 +25°C° 0 mm 3 m/s 755 mmHg 86%
    07:00 +25°C° 0 mm 3 m/s 755 mmHg 85%
    08:00 +27°C° 0 mm 3 m/s 755 mmHg 74%
    09:00 +29°C° 0 mm 3 m/s 755 mmHg 63%
    10:00 +31°C° 0 mm 3 m/s 755 mmHg 52%
    11:00 +33°C° 0 mm 4 m/s 754 mmHg 50%
    12:00 +34°C° 0 mm 4 m/s 754 mmHg 48%
    13:00 +34°C° 0 mm 4 m/s 753 mmHg 46%
    14:00 +34°C° 0 mm 4 m/s 753 mmHg 49%
    15:00 +33°C° 0 mm 4 m/s 752 mmHg 52%
    16:00 +32°C° 0 mm 4 m/s 752 mmHg 54%
    17:00 +29°C° 0 mm 4 m/s 752 mmHg 62%
    18:00 +28°C° 0 mm 3 m/s 753 mmHg 70%
    19:00 +26°C° 0 mm 3 m/s 753 mmHg 78%
    20:00 +26°C° 0 mm 3 m/s 754 mmHg 80%
    21:00 +25°C° 0 mm 3 m/s 754 mmHg 83%
    22:00 +25°C° 0 mm 3 m/s 754 mmHg 86%
    23:00 +25°C° 0 mm 3 m/s 754 mmHg 87%

    Poimâine, 21 Octombrie, Duminică

    Timp Temperatura Precipitaţii Vânt Presiune Umiditate
    00:00 +25°C° 0 mm 3 m/s 754 mmHg 87%
    01:00 +25°C° 0 mm 3 m/s 753 mmHg 88%
    02:00 +25°C° 0 mm 3 m/s 753 mmHg 88%
    03:00 +24°C° 0 mm 3 m/s 753 mmHg 88%
    04:00 +24°C° 0 mm 2 m/s 753 mmHg 88%
    05:00 +25°C° 0 mm 2 m/s 753 mmHg 85%
    06:00 +25°C° 0 mm 2 m/s 753 mmHg 83%
    07:00 +26°C° 0 mm 2 m/s 754 mmHg 80%
    08:00 +28°C° 0 mm 2 m/s 754 mmHg 70%
    09:00 +30°C° 0 mm 2 m/s 754 mmHg 60%
    10:00 +32°C° 0 mm 2 m/s 754 mmHg 51%
    11:00 +32°C° 0 mm 2 m/s 753 mmHg 48%
    12:00 +34°C° 0 mm 2 m/s 753 mmHg 44%
    13:00 +35°C° 0 mm 3 m/s 752 mmHg 41%
    14:00 +35°C° 0 mm 3 m/s 751 mmHg 43%
    15:00 +34°C° 0 mm 3 m/s 751 mmHg 45%
    16:00 +34°C° 0 mm 4 m/s 750 mmHg 47%
    17:00 +32°C° 0 mm 4 m/s 751 mmHg 57%
    18:00 +28°C° 0 mm 4 m/s 751 mmHg 66%
    19:00 +26°C° 0 mm 4 m/s 752 mmHg 75%
    20:00 +26°C° 0 mm 3 m/s 752 mmHg 76%
    21:00 +26°C° 0 mm 3 m/s 752 mmHg 78%
    22:00 +26°C° 0 mm 3 m/s 753 mmHg 79%
    23:00 +26°C° 0 mm 3 m/s 752 mmHg 81%

    22 Octombrie, Luni

    Timp Temperatura Precipitaţii Vânt Presiune Umiditate
    00:00 +25°C° 0 mm 3 m/s 752 mmHg 82%
    01:00 +25°C° 0 mm 3 m/s 752 mmHg 84%
    02:00 +25°C° 0 mm 3 m/s 752 mmHg 85%
    03:00 +25°C° 0 mm 3 m/s 752 mmHg 87%
    04:00 +24°C° 0 mm 3 m/s 751 mmHg 88%
    05:00 +25°C° 0 mm 2 m/s 752 mmHg 86%
    06:00 +25°C° 0 mm 2 m/s 752 mmHg 84%
    07:00 +26°C° 0 mm 2 m/s 753 mmHg 81%
    08:00 +28°C° 0 mm 3 m/s 753 mmHg 71%
    09:00 +30°C° 0 mm 3 m/s 753 mmHg 61%
    10:00 +33°C° 0 mm 3 m/s 753 mmHg 51%
    11:00 +34°C° 0 mm 3 m/s 753 mmHg 48%
    12:00 +35°C° 0 mm 3 m/s 752 mmHg 44%
    13:00 +36°C° 0 mm 4 m/s 751 mmHg 41%
    14:00 +35°C° 0 mm 4 m/s 751 mmHg 43%
    15:00 +34°C° 0 mm 4 m/s 750 mmHg 44%
    16:00 +34°C° 0 mm 4 m/s 750 mmHg 46%
    17:00 +32°C° 0 mm 4 m/s 751 mmHg 56%
    18:00 +29°C° 0 mm 4 m/s 751 mmHg 66%
    19:00 +27°C° 0 mm 4 m/s 752 mmHg 76%
    20:00 +26°C° 0 mm 3 m/s 752 mmHg 79%
    21:00 +26°C° 0 mm 3 m/s 753 mmHg 82%
    22:00 +26°C° 0 mm 3 m/s 753 mmHg 85%
    23:00 +25°C° 0 mm 3 m/s 753 mmHg 86%

    23 Octombrie, Marţi

    Timp Temperatura Precipitaţii Vânt Presiune Umiditate
    00:00 +25°C° 0 mm 3 m/s 752 mmHg 87%
    01:00 +25°C° 0 mm 3 m/s 752 mmHg 89%
    02:00 +25°C° 0 mm 3 m/s 752 mmHg 88%
    03:00 +25°C° 0 mm 3 m/s 752 mmHg 88%
    04:00 +25°C° 0 mm 3 m/s 752 mmHg 88%
    05:00 +26°C° 0 mm 3 m/s 753 mmHg 85%
    06:00 +26°C° 0 mm 3 m/s 753 mmHg 83%
    07:00 +27°C° 0 mm 3 m/s 754 mmHg 81%
    08:00 +28°C° 0 mm 3 m/s 754 mmHg 74%
    09:00 +30°C° 0 mm 3 m/s 754 mmHg 66%
    10:00 +31°C° 0 mm 3 m/s 754 mmHg 58%
    11:00 +33°C° 0 mm 3 m/s 753 mmHg 53%
    12:00 +34°C° 0 mm 3 m/s 753 mmHg 48%
    13:00 +35°C° 0 mm 3 m/s 752 mmHg 42%
    14:00 +35°C° 0 mm 3 m/s 752 mmHg 42%
    15:00 +34°C° 0 mm 3 m/s 752 mmHg 42%
    16:00 +34°C° 0 mm 3 m/s 751 mmHg 42%
    17:00 +31°C° 0 mm 3 m/s 752 mmHg 52%
    18:00 +29°C° 0 mm 3 m/s 753 mmHg 62%
    19:00 +27°C° 0 mm 3 m/s 753 mmHg 73%
    20:00 +26°C° 0 mm 3 m/s 754 mmHg 76%
    21:00 +26°C° 0 mm 3 m/s 754 mmHg 80%
    22:00 +25°C° 0 mm 3 m/s 754 mmHg 84%
    23:00 +25°C° 0 mm 3 m/s 754 mmHg 85%

    24 Octombrie, Miercuri

    Timp Temperatura Precipitaţii Vânt Presiune Umiditate
    00:00 +25°C° 0 mm 3 m/s 754 mmHg 85%
    01:00 +25°C° 0 mm 3 m/s 753 mmHg 86%
    02:00 +25°C° 0 mm 3 m/s 753 mmHg 87%
    03:00 +25°C° 0 mm 3 m/s 753 mmHg 89%
    04:00 +25°C° 0 mm 3 m/s 753 mmHg 91%
    05:00 +25°C° 0 mm 3 m/s 754 mmHg 87%
    06:00 +26°C° 0 mm 3 m/s 755 mmHg 83%
    07:00 +26°C° 0 mm 3 m/s 755 mmHg 79%
    08:00 +28°C° 0 mm 3 m/s 755 mmHg 69%
    09:00 +30°C° 0 mm 3 m/s 755 mmHg 59%
    10:00 +33°C° 0 mm 3 m/s 755 mmHg 49%
    11:00 +34°C° 0 mm 3 m/s 754 mmHg 46%
    12:00 +35°C° 0 mm 4 m/s 754 mmHg 42%
    13:00 +35°C° 0 mm 4 m/s 753 mmHg 39%
    14:00 +35°C° 0 mm 4 m/s 753 mmHg 40%
    15:00 +34°C° 0 mm 4 m/s 753 mmHg 41%
    16:00 +34°C° 0 mm 4 m/s 752 mmHg 43%
    17:00 +31°C° 0 mm 3 m/s 753 mmHg 53%
    18:00 +28°C° 0 mm 3 m/s 753 mmHg 64%
    19:00 +26°C° 0 mm 3 m/s 754 mmHg 74%
    20:00 +26°C° 0 mm 3 m/s 754 mmHg 79%
    21:00 +26°C° 0 mm 3 m/s 755 mmHg 83%
    22:00 +25°C° 0 mm 3 m/s 755 mmHg 88%
    23:00 +25°C° 0 mm 3 m/s 755 mmHg 87%
    Arată mai mult